This is the latest recevied weather packets stored in our database for station/object WA6ODQ-13. If no packets are shown the sender has not sent any weather packets the latest 10 day(s).
| Time | Temp. | Humidity | Pressure | Rain* | Wind** | Luminosity | Snow |
|---|---|---|---|---|---|---|---|
| 1788120723 | 28.33° C | 45% | 1010.8 hPa | 0 mm | - | 677 W/m² | - |
| 1788120418 | 27.78° C | 46% | 1010.8 hPa | 0 mm | - | 677 W/m² | - |
| 1788120117 | 27.22° C | 47% | 1010.9 hPa | 0 mm | - | 677 W/m² | - |
| 1788119813 | 27.78° C | 47% | 1011.1 hPa | 0 mm | - | 678 W/m² | - |
| 1788119511 | 27.78° C | 46% | 1011 hPa | 0 mm | - | 676 W/m² | - |
| 1788119209 | 27.78° C | 45% | 1011.2 hPa | 0 mm | - | 674 W/m² | - |
| 1788118904 | 26.67° C | 47% | 1011.2 hPa | 0 mm | - | 673 W/m² | - |
| 1788118598 | 26.67° C | 46% | 1011.2 hPa | 0 mm | - | 671 W/m² | - |
| 1788118293 | 27.78° C | 46% | 1011.2 hPa | 0 mm | - | 668 W/m² | - |
| 1788117989 | 27.22° C | 47% | 1011.3 hPa | 0 mm | - | 665 W/m² | - |
| 1788117683 | 27.78° C | 45% | 1011.2 hPa | 0 mm | - | 662 W/m² | - |
| 1788117379 | 27.22° C | 46% | 1011.3 hPa | 0 mm | - | 657 W/m² | - |
| 1788117074 | 26.67° C | 47% | 1011.3 hPa | 0 mm | - | 654 W/m² | - |
| 1788116770 | 26.67° C | 48% | 1011.5 hPa | 0 mm | - | 647 W/m² | - |
| 1788116464 | 27.22° C | 46% | 1011.3 hPa | 0 mm | - | 645 W/m² | - |
| 1788116157 | 27.22° C | 45% | 1011.6 hPa | 0 mm | - | 637 W/m² | - |
| 1788115853 | 26.67° C | 46% | 1011.4 hPa | 0 mm | - | 632 W/m² | - |
| 1788115552 | 25.56° C | 48% | 1011.5 hPa | 0 mm | - | 624 W/m² | - |
| 1788115252 | 25.56° C | 48% | 1011.6 hPa | 0 mm | - | 618 W/m² | - |
| 1788114947 | 26.11° C | 49% | 1011.8 hPa | 0 mm | - | 612 W/m² | - |
| 1788114643 | 26.11° C | 48% | 1011.6 hPa | 0 mm | - | 603 W/m² | - |
| 1788114338 | 25° C | 51% | 1011.8 hPa | 0 mm | - | 596 W/m² | - |
| 1788114034 | 25° C | 50% | 1011.5 hPa | 0 mm | - | 588 W/m² | - |
| 1788113731 | 24.44° C | 52% | 1011.7 hPa | 0 mm | - | 578 W/m² | - |
| 1788113430 | 23.89° C | 55% | 1011.7 hPa | 0 mm | - | 569 W/m² | - |
* Rain latest hour (hover to see other rain measurements)
** Current wind speed in m/s (hover to see current wind gust speed)